Flag for Austria Weather past 2 weeks in Wals-Siezenheim, Salzburg, Austria

Now
55 °F

Partly sunny.


Feels Like: 54 °F
Forecast: 53 / 60 °F
Wind: 7 mph from Southeast

Location: Salzburg-Flughafen

Current Time: May 25, 2015 at 10:04:19 PM

Latest Report: May 25, 2015 at 9:20 PM


Visibility: N/A

Pressure: 29.89 "Hg

Humidity: 82%

Dew point: 50 °F

Location of Wals-SiezenheimLocation

Historic Weather in Wals-Siezenheim — Graph

°F

Wals-Siezenheim temperature yesterday

Maximum temperature yesterday: 55 °F (at 4:50 PM)
Minimum temperature yesterday: 45 °F (at 1:20 AM)
Average temperature yesterday: 49 °F

Past Weeks' High & Low Weather Summary

 TemperatureHumidityPressure
High82 °F (May 12, 5:50 PM)100% (May 15, 3:20 AM)30.36 "Hg (May 15, 3:20 AM)
Low45 °F (May 20, 8:20 PM)28% (May 12, 1:50 PM)29.74 "Hg (May 18, 6:20 PM)
Average56 °F81%30.07 "Hg
* Reported May 10 8:20 PM — May 25 8:50 PM, Wals-Siezenheim, Weather by CustomWeather, © 2015

Note: Actual official high and low records may vary slightly from our data, if they occured in-between our weather recording intervals... More about our weather records

Advertising

Wals-Siezenheim weather history for previous 24 hours

 ConditionsComfort  
Time TempWeatherWind HumidityBarometerVisibility
8:50 PM
Mon, May 25
57 °FPartly sunny.8 mph77%29.89 "HgN/A
8:20 PM59 °FPartly sunny.6 mph72%29.89 "HgN/A
7:50 PM59 °FPartly sunny.7 mph72%29.89 "HgN/A
7:20 PM59 °FPartly sunny.9 mph72%29.89 "HgN/A
6:50 PM59 °FBroken clouds.9 mph68%29.89 "HgN/A
6:20 PM59 °FBroken clouds.7 mph72%29.89 "HgN/A
5:50 PM59 °FBroken clouds.8 mph72%29.92 "HgN/A
5:20 PM59 °FScattered showers. Partly sunny.13 mph77%29.92 "HgN/A
4:50 PM63 °FScattered showers. Broken clouds.9 mph68%29.92 "HgN/A
4:20 PM64 °FBroken clouds.6 mph56%29.92 "HgN/A
3:50 PM64 °FPartly sunny.6 mph56%29.92 "HgN/A
3:20 PM64 °FPartly sunny.6 mph56%29.92 "HgN/A
2:50 PM64 °FPartly sunny.5 mph56%29.92 "HgN/A
2:20 PM66 °FBroken clouds.5 mph60%29.92 "HgN/A
1:50 PM64 °FBroken clouds.5 mph56%29.95 "HgN/A
1:20 PM63 °FBroken clouds.3 mph56%29.95 "HgN/A
12:50 PM64 °FBroken clouds.5 mph60%29.95 "HgN/A
12:20 PM63 °FPartly sunny.3 mph64%29.98 "HgN/A
11:50 AM61 °FPartly sunny.5 mph63%29.98 "HgN/A
11:20 AM61 °FPartly sunny.1 mph63%29.98 "HgN/A
10:50 AM59 °FPartly sunny.2 mph68%29.98 "HgN/A
10:20 AM59 °FPartly sunny.2 mph72%30.01 "HgN/A
9:50 AM59 °FPartly sunny.3 mph68%30.01 "HgN/A
9:20 AM55 °FPartly sunny.3 mph77%30.01 "HgN/A
8:50 AM55 °FPartly sunny.5 mph77%30.01 "HgN/A
8:20 AM54 °FPartly sunny.2 mph88%30.04 "HgN/A
7:50 AM52 °FPartly sunny.5 mph94%30.04 "HgN/A
7:20 AM50 °FPartly sunny.5 mph94%30.04 "HgN/A
6:50 AM48 °FPartly sunny.6 mph100%30.04 "HgN/A
6:20 AM48 °FBroken clouds.1 mph100%30.04 "HgN/A
5:50 AM48 °FPassing clouds.2 mph100%30.04 "HgN/A
5:20 AM48 °FPartly cloudy.1 mph100%30.04 "HgN/A
4:50 AM48 °FPassing clouds.6 mph100%30.04 "Hg4 mi
4:20 AM48 °FPartly cloudy.6 mph100%30.04 "HgN/A
3:50 AM48 °FOvercast.1 mph100%30.04 "HgN/A
3:20 AM48 °FPassing clouds.2 mph100%30.04 "HgN/A
2:50 AM50 °FOvercast.3 mph94%30.04 "HgN/A
2:20 AM50 °FOvercast.1 mph94%30.07 "HgN/A
1:50 AM50 °FOvercast.2 mph94%30.07 "HgN/A
1:20 AM50 °FPassing clouds.2 mph94%30.07 "Hg6 mi
12:50 AM50 °FPartly cloudy.3 mph94%30.07 "HgN/A
12:20 AM50 °FOvercast.1 mph100%30.07 "HgN/A
11:50 PM
Sun, May 24
50 °FPartly cloudy.1 mph94%30.07 "HgN/A
11:20 PM50 °FPartly cloudy.2 mph94%30.07 "HgN/A
10:50 PM50 °FPassing clouds.2 mph100%30.07 "HgN/A
10:20 PM50 °FPassing clouds.2 mph100%30.07 "HgN/A
Weather by CustomWeather, © 2015

See weather overviewHow to use our weather pages